Regional Weather Roundup
Issued by NWS Sterling, VA

Home | Current Version | Previous Version | Graphics & Text | Print | Product List | Glossary On
Versions: 1 2 3 4 5 6 7 8 9 10 11 12 13 14 15 16 17 18 19 20 21 22 23 24 25 26 27
000
ASUS41 KLWX 100910
RWRLWX

REGIONAL WEATHER ROUNDUP
NATIONAL WEATHER SERVICE BALTIMORE MD/WASHINGTON DC
400 AM EST SAT DEC 10 2016

Note: "FAIR" indicates few or no clouds below 12,000 feet
with no significant weather and/or obstructions to visibility.
 TC=TEMPERATURE CELSIUS

 * =Non NWS site. Station does not report precipitation (e.g. rain,
    snow, etc.), thunder, or fog.

DCZ001-MDZ009-015-VAZ040>042-051-053>054-101000-
WASHINGTON METRO

CITY           SKY/WX    TMP DP  RH WIND       PRES   REMARKS
WASHINGTON NAT PTCLDY    31  16  54 W7        30.47R
DULLES         MOCLDY    28  14  55 W5        30.46S
ANDREWS AFB    PTCLDY    29  15  55 W8        30.44S WCI  21
QUANTICO       PTCLDY    29  17  61 NW6       30.49S
COLLEGE PARK*  PTCLDY    30  18  59 W6        30.45S
LEESBURG*      PTCLDY    32  19  59 W9        30.46S WCI  24
GAITHERSBURG*  PTCLDY    27  14  59 W6        30.47S

$$

MDZ006>007-011-014-101000-
BALTIMORE METRO

CITY           SKY/WX    TMP DP  RH WIND       PRES   REMARKS
BWI AIRPORT    MOCLDY    28  17  63 W6        30.44R
MD SCIENCE CTR   N/A     31  14  49 MISG      30.43S
ANNAPOLIS      PTCLDY    31  18  58 W6        30.44S
FORT MEADE*    PTCLDY    27  21  80 W5        30.47S

$$

MDZ012-015-019>023-101000-
MARYLAND EASTERN SHORE

CITY           SKY/WX    TMP DP  RH WIND       PRES   REMARKS
OCEAN CITY     CLEAR     28  18  66 NW6       30.44R
SALISBURY      CLEAR     28  19  69 W6        30.44R
BAY BRIDGE AP* PTCLDY    30  19  64 MISG      30.44S
CAMBRIDGE*     PTCLDY    32  19  59 NW8       30.44R WCI  25
EASTON*        PTCLDY    32  18  56 NW8       30.48R WCI  25

$$

MDZ017>025-101000-
SOUTHERN MARYLAND

CITY           SKY/WX    TMP DP  RH WIND       PRES   REMARKS
PATUXENT RIVER CLEAR     29  17  61 W8        30.45S WCI  21
ST INIGOES     CLEAR     31  17  56 W9        30.46R WCI  23
LEONARDTOWN*   CLEAR     28  18  64 W6        30.47R

$$

MDZ003>005-101000-
NORTH CENTRAL MARYLAND

CITY           SKY/WX    TMP DP  RH WIND       PRES   REMARKS
FREDERICK*     PTCLDY    28  21  74 S3        30.47S
HAGERSTOWN APT PTCLDY    28  15  58 W15       30.41S WCI  16
WESTMINSTER*     N/A     25  16  68 W8        30.39S WCI  16

$$

MDZ501>502-101000-
WESTERN MARYLAND

CITY           SKY/WX    TMP DP  RH WIND       PRES   REMARKS
OAKLAND*       CLOUDY    14  14 100 W12       30.29S FOG     WCI   0
CUMBERLAND*    NOT AVBL

$$

VAZ025>031-101000-
SHENANDOAH VALLEY

CITY           SKY/WX    TMP DP  RH WIND       PRES   REMARKS
WINCHESTER*    PTCLDY    28  12  50 W9        30.43S WCI  20
FRONT ROYAL*   FAIR      28  14  54 CALM      30.45R
LURAY*         FAIR      27  18  69 W5        30.45S
NEW MARKET*    FAIR      22  14  72 CALM      30.45R
STAUNTON*      CLEAR     18  12  77 W5        30.46S
WAYNESBORO*    FAIR      20  10  64 SW5       30.43F

$$

WVZ021-048>050-054>055-101000-
EASTERN WEST VIRGINIA PANHANDLE

CITY           SKY/WX    TMP DP  RH WIND       PRES   REMARKS
MARTINSBURG    MOCLDY    28  14  55 SW5       30.43S
PETERSBURG*    PTCLDY    28  13  55 SW6       30.46S

$$

VAZ036>039-050-101000-
CENTRAL FOOTHILLS

CITY           SKY/WX    TMP DP  RH WIND       PRES   REMARKS
CHARLOTTESVILL CLEAR     27  11  51 CALM      30.46F
CULPEPER*      PTCLDY    29  15  55 CALM      30.48S
ORANGE*          N/A     27  16  63 CALM      30.49R
GORDONSVILLE*  FAIR      26  14  60 CALM      30.46F
WARRENTON*     FAIR      24  14  66 W5        30.46F

$$

VAZ055>057-101000-
NORTH AND CENTRAL PIEDMONT

CITY           SKY/WX    TMP DP  RH WIND       PRES   REMARKS
FREDERICKSBRG* PTCLDY    28  17  65 W3        30.49R
STAFFORD*      CLEAR     27  15  61 W5        30.52R

$$

NCZ024-NYZ072-PAZ021-071-VAZ022-071-101000-
OTHER REGIONAL OBSERVATIONS

CITY           SKY/WX    TMP DP  RH WIND       PRES   REMARKS
NEW YORK CITY  CLEAR     29  15  56 NW6       30.34S
PHILADELPHIA   PTCLDY    28  18  66 W8        30.40S WCI  20
PITTSBURGH     FLURRIES  25  19  78 W9        30.41R WCI  15
ROANOKE        CLEAR     19  11  70 NW7       30.48F
RICHMOND       PTCLDY    26  13  57 W5        30.49S
RALEIGH        CLEAR     23  14  68 CALM      30.51F

$$

ANZ530>537-101000-
MARINE OBSERVATIONS

STATION/POSITION TIME  TEMP    WIND        PRES
                       AIR SEA DIR/SP/G
                 (UTC) (F)     (DEG/KT/KT) (MB)
THOMAS PT LIGHT  0900   31 44  290/ 18/ 20   N/A
BALT KEY BRIDGE  0842   31     270/ 13/ 16 1030.7R
COVE POINT       0842   31     320/ 10/ 17 1031.6F
LEWISETTA        0842   30 43  290/  9/ 10 1031.5R
SOLOMONS ISLAND  0842   32 48  290/  9/ 13   N/A
PINEY POINT      0848          330/ 20/ 23   N/A

$$





USA.gov is the U.S. government's official web portal to all federal, state and local government web resources and services.